CW0962 Weather Reports


Display with metric or nautical units.
time (UTC)temp
F
wind
direction
speed
MPH
gust
MPH
rain 1hr
in
rain 24hr
in
rain mn
in
humidity
%
barometer
mb
20260510173503 72 199 6.0 16.0 0.00 0.17 0.00 57 1010.7
20260510173025 72 172 6.0 15.0 0.00 0.17 0.00 56 1010.6
20260510172506 72 166 6.0 15.0 0.00 0.17 0.00 58 1010.7
20260510172023 72 283 6.0 13.0 0.00 0.17 0.00 58 1010.6
20260510171001 71 188 6.0 14.0 0.00 0.17 0.00 60 1010.6
20260510170512 71 167 6.0 14.0 0.00 0.17 0.00 63 1010.6
20260510170027 70 93 6.0 13.0 0.00 0.17 0.00 64 1010.7
20260510165525 69 167 6.0 13.0 0.00 0.17 0.00 64 1010.8
20260510165020 70 163 5.0 13.0 0.00 0.17 0.00 61 1010.8
20260510164503 70 176 5.0 10.0 0.00 0.17 0.00 61 1010.7
20260510164009 69 108 6.0 13.0 0.00 0.17 0.00 63 1010.8
20260510163500 70 248 6.0 16.0 0.00 0.17 0.00 62 1010.9
20260510161009 70 205 6.0 12.0 0.00 0.17 0.00 65 1011.0
20260510160506 70 136 7.0 14.0 0.00 0.17 0.00 66 1011.0
20260510160009 70 132 6.0 14.0 0.00 0.17 0.00 66 1011.0
20260510155459 69 163 6.0 12.0 0.00 0.17 0.00 66 1011.0
20260510155012 69 143 5.0 12.0 0.00 0.17 0.00 68 1011.2
20260510154526 69 139 5.0 13.0 0.00 0.17 0.00 65 1011.2
20260510154000 68 175 5.0 13.0 0.00 0.17 0.00 65 1011.3
20260510153511 69 252 4.0 11.0 0.00 0.17 0.00 68 1011.1
20260510152502 68 163 4.0 9.0 0.00 0.17 0.00 68 1011.1
20260510152011 68 192 5.0 11.0 0.00 0.17 0.00 69 1011.2
20260510151503 67 246 6.0 12.0 0.00 0.17 0.00 69 1011.3
20260510151001 66 128 6.0 12.0 0.00 0.17 0.00 71 1011.4
20260510150504 66 206 5.0 12.0 0.00 0.17 0.00 69 1011.4
20260510150026 67 153 5.0 9.0 0.00 0.17 0.00 70 1011.4
20260510145500 66 172 4.0 9.0 0.00 0.17 0.00 69 1011.3
20260510145021 66 257 3.0 8.0 0.00 0.17 0.00 71 1011.3
20260510144510 66 197 4.0 10.0 0.00 0.17 0.00 71 1011.3
20260510143503 65 130 4.0 8.0 0.00 0.17 0.00 73 1011.3
20260510143007 65 172 3.0 8.0 0.00 0.17 0.00 73 1011.4
20260510142501 65 172 3.0 6.0 0.00 0.17 0.00 77 1011.4
20260510142002 65 248 4.0 8.0 0.00 0.17 0.00 73 1011.4
20260510141003 65 224 4.0 9.0 0.00 0.17 0.00 76 1011.4
20260510140500 65 142 4.0 9.0 0.00 0.17 0.00 74 1011.3
20260510140011 65 169 4.0 9.0 0.00 0.17 0.00 75 1011.3
20260510135511 64 134 4.0 10.0 0.00 0.17 0.00 76 1011.3
20260510135003 64 198 4.0 10.0 0.00 0.17 0.00 75 1011.2
20260510134505 64 140 3.0 9.0 0.00 0.17 0.00 76 1011.2
20260510133544 63 192 4.0 12.0 0.00 0.17 0.00 76 1011.2
20260510132506 63 165 5.0 11.0 0.00 0.17 0.00 82 1010.8
20260510132043 62 145 6.0 11.0 0.00 0.17 0.00 78 1010.4
20260510131002 62 102 5.0 10.0 0.00 0.17 0.00 82 1010.3
20260510130500 61 197 5.0 10.0 0.00 0.17 0.00 80 1010.4
20260510130004 61 154 5.0 10.0 0.00 0.17 0.00 84 1010.4
20260510125459 60 184 5.0 10.0 0.00 0.17 0.00 84 1010.5
20260510124504 60 157 5.0 12.0 0.00 0.17 0.00 84 1010.7
20260510124031 59 126 6.0 12.0 0.00 0.17 0.00 86 1010.8
20260510123006 59 146 4.0 9.0 0.00 0.17 0.00 86 1010.9
20260510122514 58 171 4.0 9.0 0.00 0.17 0.00 87 1010.9
20260510122000 58 141 3.0 7.0 0.00 0.17 0.00 88 1011.0
20260510121522 58 180 3.0 8.0 0.00 0.17 0.00 89 1011.1
20260510121018 57 207 4.0 8.0 0.00 0.17 0.00 89 1011.2
20260510120501 57 161 3.0 7.0 0.00 0.17 0.00 90 1011.2
20260510120023 57 127 3.0 7.0 0.00 0.17 0.00 90 1011.2
20260510115504 57 119 2.0 7.0 0.00 0.20 0.00 91 1011.2
20260510115007 57 142 1.0 6.0 0.00 0.20 0.00 91 1011.3
20260510114503 57 184 1.0 5.0 0.00 0.20 0.00 91 1011.3
20260510114004 57 180 1.0 5.0 0.00 0.20 0.00 91 1011.3
20260510113507 56 155 1.0 8.0 0.00 0.20 0.00 92 1011.3
20260510113022 56 157 2.0 8.0 0.00 0.20 0.00 92 1011.2
20260510112524 56 161 2.0 7.0 0.00 0.20 0.00 92 1011.2
20260510112011 56 239 2.0 7.0 0.00 0.20 0.00 92 1011.2
20260510111505 56 194 3.0 7.0 0.00 0.20 0.00 92 1011.3
20260510111004 56 207 2.0 7.0 0.00 0.20 0.00 92 1011.3
20260510105459 55 186 2.0 7.0 0.00 0.20 0.00 92 1011.2
20260510105001 55 242 2.0 6.0 0.00 0.20 0.00 92 1011.2
20260510104518 55 150 2.0 8.0 0.00 0.20 0.00 92 1011.3
20260510103959 55 198 3.0 9.0 0.00 0.20 0.00 92 1011.3
20260510102003 55 181 3.0 8.0 0.00 0.20 0.00 91 1011.0
20260510101515 55 194 3.0 8.0 0.00 0.20 0.00 91 1010.9
20260510100504 54 159 2.0 6.0 0.00 0.20 0.00 91 1010.7
20260510100005 54 174 2.0 6.0 0.00 0.20 0.00 91 1010.8
20260510095504 54 198 3.0 8.0 0.00 0.20 0.00 91 1010.7
20260510095009 54 202 3.0 8.0 0.00 0.20 0.00 91 1010.5
20260510094513 54 113 3.0 7.0 0.00 0.20 0.00 91 1010.4
20260510094033 54 151 2.0 6.0 0.00 0.20 0.00 91 1010.5
20260510093508 54 164 2.0 6.0 0.00 0.20 0.00 91 1010.6
20260510092008 54 150 2.0 7.0 0.00 0.20 0.00 91 1010.4
20260510091501 54 178 1.0 3.0 0.00 0.20 0.00 91 1010.4
20260510091004 54 175 2.0 7.0 0.00 0.20 0.00 91 1010.4
20260510090506 54 238 2.0 7.0 0.00 0.20 0.00 91 1010.4
20260510090009 54 180 2.0 7.0 0.00 0.20 0.00 91 1010.4
20260510085501 54 205 2.0 7.0 0.00 0.20 0.00 91 1010.4
20260510085008 54 198 2.0 8.0 0.00 0.20 0.00 91 1010.4
20260510084507 54 211 3.0 8.0 0.00 0.20 0.00 91 1010.3
20260510084005 54 195 3.0 8.0 0.00 0.20 0.00 91 1010.2
20260510083459 54 211 3.0 8.0 0.00 0.20 0.00 91 1010.1
20260510083002 54 188 3.0 8.0 0.00 0.20 0.00 91 1010.2
20260510082511 54 165 2.0 12.0 0.00 0.20 0.00 91 1010.2
20260510082004 54 193 3.0 12.0 0.00 0.20 0.00 91 1010.3
20260510081458 54 156 3.0 9.0 0.00 0.20 0.00 90 1010.2
20260510081039 54 159 3.0 8.0 0.00 0.20 0.00 90 1010.2
20260510080501 55 206 3.0 8.0 0.00 0.20 0.00 91 1010.2
20260510080028 55 199 3.0 9.0 0.00 0.20 0.00 91 1010.2
20260510075507 55 194 3.0 9.0 0.00 0.20 0.00 90 1010.2
20260510074959 55 191 4.0 9.0 0.00 0.20 0.00 90 1010.1
20260510074535 55 150 3.0 9.0 0.00 0.20 0.00 90 1010.1
20260510074008 55 163 3.0 11.0 0.00 0.20 0.00 90 1010.1
20260510073516 55 225 3.0 11.0 0.00 0.20 0.00 90 1010.1
20260510073010 55 219 3.0 9.0 0.00 0.20 0.00 90 1010.1
20260510072508 55 276 3.0 9.0 0.00 0.20 0.00 90 1009.9
20260510072002 55 221 3.0 9.0 0.00 0.20 0.00 90 1009.9
20260510071504 55 186 3.0 10.0 0.00 0.20 0.00 90 1009.8
20260510071004 55 205 3.0 10.0 0.00 0.20 0.00 90 1009.7
20260510070515 55 171 3.0 10.0 0.00 0.20 0.00 90 1009.6
20260510070004 55 133 4.0 11.0 0.00 0.20 0.00 90 1009.6
20260510064504 55 219 3.0 9.0 0.00 0.20 0.00 90 1009.5
20260510064000 55 134 3.0 10.0 0.00 0.20 0.00 90 1009.5
20260510062959 55 161 3.0 9.0 0.00 0.20 0.00 90 1009.7
20260510062504 55 184 3.0 8.0 0.00 0.20 0.00 90 1009.7
20260510062026 55 215 3.0 8.0 0.00 0.20 0.00 90 1009.7
20260510061508 55 157 4.0 10.0 0.00 0.20 0.00 90 1009.6
20260510060500 55 171 4.0 11.0 0.00 0.20 0.00 89 1009.7
20260510060023 55 160 4.0 13.0 0.00 0.20 0.00 89 1009.7
20260510055507 55 170 4.0 13.0 0.00 0.20 0.00 89 1009.7
20260510055002 55 172 4.0 11.0 0.00 0.20 0.00 89 1009.6
20260510054507 55 186 5.0 18.0 0.00 0.20 0.00 89 1009.7
20260510053459 55 178 5.0 14.0 0.00 0.20 0.00 89 1009.6
20260510053028 56 161 5.0 14.0 0.00 0.20 0.00 89 1009.6
20260510052008 56 115 5.0 14.0 0.00 0.20 0.00 89 1009.6
20260510051508 56 143 5.0 14.0 0.00 0.20 0.00 89 1009.6
20260510051004 56 172 5.0 14.0 0.00 0.20 0.00 89 1009.6
20260510050508 56 107 6.0 13.0 0.00 0.20 0.00 89 1009.5
20260510050027 55 184 6.0 11.0 0.00 0.20 0.00 89 1009.6
20260510045510 55 199 5.0 13.0 0.00 0.20 0.00 89 1009.6
20260510044519 55 128 4.0 10.0 0.00 0.20 0.00 88 1009.7
20260510044009 55 150 4.0 10.0 0.00 0.20 0.00 88 1009.9
20260510043505 55 181 4.0 13.0 0.00 0.20 0.00 88 1009.9
20260510043002 55 78 4.0 13.0 0.00 0.20 0.00 88 1009.9
20260510042504 54 141 4.0 11.0 0.00 0.20 0.00 88 1010.0
20260510042000 54 138 3.0 11.0 0.00 0.20 0.00 88 1010.3
20260510041458 54 143 2.0 11.0 0.00 0.20 0.00 88 1010.1
20260510041002 54 135 3.0 11.0 0.00 0.20 0.00 88 1010.2
20260510040009 54 184 2.0 7.0 0.00 0.20 0.00 87 1010.1
20260510035511 53 195 3.0 7.0 0.00 0.20 0.20 87 1010.1
20260510035002 53 148 3.0 6.0 0.00 0.20 0.20 87 1010.0
20260510034508 53 147 3.0 7.0 0.00 0.20 0.20 87 1009.9
20260510034005 53 168 3.0 8.0 0.00 0.20 0.20 87 1009.9
20260510033008 53 135 5.0 10.0 0.00 0.20 0.20 87 1009.9
20260510032512 53 176 5.0 11.0 0.00 0.20 0.20 87 1010.0
20260510032001 53 127 4.0 11.0 0.00 0.20 0.20 87 1010.1
20260510031515 53 139 4.0 9.0 0.00 0.20 0.20 87 1010.2
20260510030508 53 123 3.0 9.0 0.00 0.20 0.20 86 1010.3
20260510030032 53 120 3.0 8.0 0.01 0.20 0.20 86 1010.4
20260510025505 53 136 4.0 8.0 0.01 0.20 0.20 86 1010.4
20260510025027 53 126 5.0 9.0 0.01 0.20 0.20 86 1010.5
20260510024502 53 127 4.0 9.0 0.01 0.20 0.20 86 1010.5
20260510024024 53 128 4.0 7.0 0.01 0.20 0.20 87 1010.7
20260510023504 53 163 3.0 7.0 0.01 0.20 0.20 87 1010.7
20260510023010 53 153 3.0 7.0 0.01 0.20 0.20 87 1010.8
20260510022036 53 138 4.0 9.0 0.01 0.20 0.20 87 1011.0
20260510021004 53 147 4.0 11.0 0.01 0.20 0.20 87 1011.1
20260510020507 53 129 5.0 12.0 0.01 0.20 0.20 87 1011.2
20260510020022 53 140 5.0 12.0 0.01 0.19 0.19 88 1011.2
20260510015008 53 150 4.0 10.0 0.01 0.19 0.19 88 1011.5
20260510014511 53 136 4.0 10.0 0.02 0.19 0.19 88 1011.6
20260510013507 53 156 4.0 9.0 0.02 0.19 0.19 88 1011.7
20260510013004 53 128 4.0 8.0 0.02 0.19 0.19 88 1011.8
20260510012500 53 150 4.0 8.0 0.02 0.19 0.19 88 1011.8
20260510012002 53 161 3.0 8.0 0.03 0.19 0.19 88 1011.9
20260510011005 53 157 4.0 11.0 0.03 0.19 0.19 88 1012.0
20260510005505 53 174 3.0 8.0 0.02 0.18 0.18 88 1012.0
20260510005009 53 198 3.0 8.0 0.02 0.18 0.18 88 1012.0
20260510004512 53 153 3.0 9.0 0.02 0.17 0.17 88 1012.1
20260510004007 54 136 3.0 11.0 0.02 0.17 0.17 88 1012.1
20260510003528 54 126 3.0 11.0 0.02 0.17 0.17 88 1012.1
20260510003005 54 123 3.0 10.0 0.02 0.17 0.17 88 1012.0
20260510002003 54 198 2.0 9.0 0.02 0.16 0.16 88 1012.0
20260510001501 54 161 2.0 7.0 0.02 0.16 0.16 89 1011.9
20260510001005 54 181 2.0 7.0 0.03 0.16 0.16 89 1011.9
20260510000501 54 163 1.0 7.0 0.03 0.16 0.16 89 1011.8
20260510000005 54 160 2.0 6.0 0.04 0.16 0.16 89 1011.8
20260509235504 54 194 2.0 8.0 0.04 0.16 0.16 89 1011.9
20260509235002 54 209 2.0 8.0 0.04 0.16 0.16 89 1011.8
20260509234510 54 201 2.0 8.0 0.03 0.15 0.15 89 1011.7
20260509234007 54 231 1.0 7.0 0.03 0.15 0.15 88 1011.7
20260509233514 54 113 2.0 6.0 0.03 0.15 0.15 88 1011.7
20260509233005 54 238 2.0 8.0 0.03 0.15 0.15 88 1011.7
20260509232517 54 179 2.0 8.0 0.02 0.14 0.14 88 1011.7
20260509231504 55 175 2.0 9.0 0.02 0.14 0.14 88 1011.7
20260509230501 55 180 4.0 11.0 0.03 0.13 0.13 88 1011.8
20260509230046 55 229 4.0 11.0 0.02 0.12 0.12 88 1011.7
20260509225043 55 205 3.0 11.0 0.02 0.12 0.12 88 1011.6
20260509224508 55 202 3.0 8.0 0.05 0.12 0.12 88 1011.5
20260509224005 55 199 3.0 8.0 0.06 0.12 0.12 88 1011.6
20260509223459 55 202 3.0 8.0 0.07 0.12 0.12 88 1011.5
20260509223006 55 223 2.0 8.0 0.07 0.12 0.12 87 1011.4
20260509222503 55 222 2.0 5.0 0.08 0.12 0.12 87 1011.4
20260509222011 55 221 2.0 9.0 0.09 0.12 0.12 87 1011.5
20260509221511 55 219 3.0 9.0 0.09 0.12 0.12 87 1011.3
20260509221004 56 246 4.0 8.0 0.08 0.11 0.11 87 1011.2
20260509220505 56 242 3.0 8.0 0.07 0.10 0.10 86 1011.3
20260509220007 56 211 2.0 8.0 0.07 0.10 0.10 86 1011.2
20260509215504 56 196 4.0 9.0 0.07 0.10 0.10 85 1011.1
20260509215008 56 176 5.0 10.0 0.07 0.10 0.10 84 1011.2
20260509214505 56 178 5.0 13.0 0.03 0.06 0.06 83 1011.4
20260509213459 57 213 6.0 20.0 0.02 0.05 0.05 80 1011.0
20260509213023 57 111 6.0 20.0 0.01 0.04 0.04 79 1011.0
20260509212501 58 171 6.0 16.0 0.01 0.04 0.04 76 1010.9
20260509212000 59 186 6.0 16.0 0.00 0.03 0.03 72 1010.9
20260509211527 60 216 6.0 16.0 0.00 0.03 0.03 70 1010.9
20260509211030 60 187 6.0 16.0 0.00 0.03 0.03 70 1010.7
20260509210507 60 245 6.0 18.0 0.00 0.03 0.03 70 1010.4
20260509210004 60 180 6.0 18.0 0.00 0.03 0.03 69 1010.3
20260509205513 60 275 6.0 21.0 0.00 0.03 0.03 70 1010.4
20260509204500 60 138 6.0 19.0 0.00 0.03 0.03 69 1010.3
20260509204027 61 196 6.0 13.0 0.00 0.03 0.03 69 1010.4
20260509203503 60 172 6.0 13.0 0.00 0.03 0.03 69 1010.5
20260509203005 60 252 6.0 15.0 0.00 0.03 0.03 69 1010.6
20260509202504 60 142 6.0 15.0 0.00 0.03 0.03 69 1010.6
20260509202009 60 190 6.0 12.0 0.00 0.03 0.03 70 1010.5
20260509201544 61 193 6.0 16.0 0.00 0.03 0.03 69 1010.6
20260509201002 61 153 6.0 16.0 0.00 0.03 0.03 67 1010.7
20260509200004 61 171 7.0 18.0 0.00 0.03 0.03 67 1010.6
20260509195502 61 176 5.0 13.0 0.00 0.03 0.03 67 1010.6
20260509195013 62 97 6.0 14.0 0.00 0.03 0.03 67 1010.6
20260509194507 61 172 6.0 19.0 0.00 0.03 0.03 68 1010.7
20260509194029 61 290 7.0 19.0 0.00 0.03 0.03 68 1010.9
20260509193005 61 152 7.0 18.0 0.00 0.03 0.03 67 1011.0
20260509192508 62 163 7.0 18.0 0.00 0.03 0.03 66 1010.8
20260509192003 62 122 6.0 16.0 0.00 0.03 0.03 67 1010.7
20260509191520 62 238 5.0 16.0 0.00 0.03 0.03 65 1010.9
20260509191021 62 190 5.0 11.0 0.00 0.03 0.03 65 1010.9
20260509190505 62 115 6.0 16.0 0.00 0.03 0.03 64 1010.9
20260509190005 62 282 6.0 16.0 0.00 0.03 0.03 62 1010.7
20260509185508 62 188 6.0 16.0 0.00 0.03 0.03 63 1010.7
20260509184526 62 212 6.0 14.0 0.00 0.03 0.03 63 1010.9
20260509184000 62 200 6.0 12.0 0.00 0.03 0.03 65 1011.0
20260509183500 62 91 6.0 12.0 0.00 0.03 0.03 64 1010.8
20260509183005 62 119 6.0 12.0 0.00 0.03 0.03 64 1010.9
20260509182507 61 159 5.0 15.0 0.00 0.03 0.03 65 1010.9
20260509182002 61 155 6.0 15.0 0.00 0.03 0.03 66 1011.0
20260509181634 60 135 6.0 15.0 0.00 0.03 0.03 66 1011.0
20260509174504 60 178 5.0 10.0 0.00 0.03 0.03 68 1011.3
20260509174002 60 185 4.0 10.0 0.00 0.03 0.03 69 1011.3